Вернуться в каталог

SL-14 DEB

АктивенPO
NORAD 45288·DEBRIS·🇷🇺 Russia

Запущен Aug 15, 1991 с Plesetsk Cosmodrome

Loading…

Ближайшие Пролёты (ближайшие 24 часа)

TLE

СвежийSource: Space-Track

Эпоха: Sep 14, 2026, 02:30 UTC

1 45288U 91056AA  26257.10437615  .00006421  00000-0  20464-1 0  9997
2 45288  82.6109 189.8056 0282959  14.6465 346.2629 12.90261714307806

Отслеживайте SL-14 DEB в реальном времени с AllMySat

Download on the App Store